Lid_Strength_Index
13 16 17 16 14 13 14 15 14 12 10 11 12 12 11 9 8 9 8 8 8 8 9 8 7 6 4 3 4 6 7 7 8 8 9 10 11 11 11 11 11 11 11 11
16 18 14 13 12 12 12 14 14 12 10 11 12 12 11 11 10 8 8 8 8 10 9 9 8 6 4 3 4 6 7 7 7 8 9 10 11 11 11 12 12 11 12 12
17 14 11 12 12 12 12 14 14 14 12 11 12 14 13 11 10 10 7 7 8 10 9 9 9 8 6 5 5 7 7 7 8 9 10 11 11 12 12 13 12 12 12 12
14 10 10 11 12 11 15 11 12 13 14 18 12 19 14 12 12 11 9 8 9 9 9 9 9 9 8 8 7 7 8 9 9 10 11 12 12 13 13 12 13 13 13 13
13 11 11 12 11 10 12 10 12 12 14 15 15 17 15 13 14 12 11 9 10 10 10 10 10 9 10 10 9 9 9 10 10 10 10 11 12 13 13 13 13 14 14 14
10 7 9 10 8 9 9 11 12 13 14 19 16 17 17 14 13 12 11 9 9 10 10 10 10 11 11 10 9 10 10 10 10 10 10 11 12 13 14 14 14 15 15 15
11 11 8 8 11 10 11 14 19 20 20 20 15 17 15 11 10 10 10 10 9 10 11 12 12 12 12 11 11 10 10 11 10 11 11 12 12 13 14 14 15 15 16 15
17 17 11 9 11 13 13 13 18 23 22 20 15 19 15 10 8 9 9 9 10 11 12 12 12 12 12 12 11 10 11 11 11 11 11 12 12 13 13 14 14 15 15 16
15 15 10 9 8 9 13 16 12 16 16 19 17 15 12 10 10 9 9 11 12 12 12 13 13 13 12 12 12 12 12 12 11 11 12 12 13 13 14 14 15 15 16 15
12 16 11 10 9 9 12 10 16 16 21 22 19 18 17 13 12 10 10 11 12 12 12 13 12 12 12 12 12 12 12 12 13 13 13 13 14 14 14 15 15 15 15 15
10 13 13 11 13 14 13 14 14 14 16 20 21 19 12 13 11 10 9 10 12 12 13 13 13 13 13 13 13 13 13 13 13 13 14 14 14 14 15 15 16 16 15 16
10 12 17 14 11 10 11 13 14 18 18 17 17 18 13 13 13 9 11 11 12 12 12 13 13 14 14 14 14 14 14 15 14 14 14 15 15 15 15 15 16 16 16 15
10 14 18 19 13 11 13 12 12 13 14 17 19 18 12 13 12 10 12 12 12 13 14 14 14 15 15 15 14 15 15 15 15 15 15 15 15 15 16 16 16 16 16 16
9 12 15 20 16 13 14 13 12 14 17 16 16 16 13 13 12 11 13 13 13 13 13 15 15 14 15 15 15 15 15 15 15 15 16 16 16 16 16 16 16 16 16 16
13 15 14 14 13 12 13 13 13 14 14 17 15 14 12 13 12 11 12 12 12 12 13 14 15 15 15 15 15 15 15 15 15 16 16 16 16 16 16 16 16 16 17 16
11 18 16 17 13 13 14 13 13 13 13 13 13 14 10 12 11 12 11 12 12 13 13 13 14 15 15 15 15 15 15 15 15 15 16 16 16 16 15 16 16 16 17 17
12 15 16 22 15 15 20 15 13 13 12 12 15 12 9 10 12 12 12 12 12 12 13 13 14 13 13 14 14 14 14 14 15 16 16 16 15 15 16 16 16 17 17 17
15 15 14 20 19 25 15 13 13 13 12 12 12 11 11 10 11 11 12 12 12 12 13 13 14 13 13 13 13 13 14 15 16 16 15 15 15 16 16 16 16 16 17 18
11 14 18 21 26 18 14 14 14 14 13 14 14 12 12 12 12 13 11 11 11 12 12 13 13 13 14 14 14 15 15 15 15 15 15 15 15 15 16 16 17 17 17 18
13 12 17 26 24 23 14 13 13 13 17 13 14 12 13 13 13 12 13 11 11 12 12 13 13 13 14 15 14 14 14 14 15 15 15 15 16 16 16 16 17 18 17 16
24 25 20 18 21 18 12 12 12 19 15 13 14 12 13 13 13 13 12 12 11 12 13 13 13 14 14 14 14 15 15 15 14 15 15 16 16 16 16 17 18 18 17 16
21 20 19 22 20 21 12 12 14 10 13 14 13 12 13 13 14 13 12 13 12 13 13 14 14 14 15 14 14 15 15 14 15 15 15 16 17 16 16 18 20 19 19 18
22 16 19 17 16 12 13 11 11 12 12 14 14 13 12 13 14 13 12 13 13 13 13 13 14 14 15 14 14 14 14 15 15 16 17 17 19 17 17 19 18 19 19 19
18 17 19 18 16 15 14 13 13 12 12 12 13 13 13 12 13 13 12 12 13 13 13 14 14 15 15 15 15 15 15 15 16 17 17 18 17 18 19 17 17 18 19 19
17 17 19 20 17 16 15 14 14 13 13 13 13 14 13 12 13 13 13 12 13 13 13 14 14 14 15 16 16 18 16 16 15 16 17 17 18 18 18 18 17 17 17 17
17 18 18 19 16 16 16 16 15 15 14 13 14 14 14 13 13 13 13 13 13 13 15 16 17 17 17 16 16 17 17 15 16 16 18 17 18 19 19 19 19 14 13 13